DW5065 Weather Reports


Display with metric or nautical units.
time (UTC)temp
F
wind
direction
speed
MPH
gust
MPH
rain 1hr
in
rain 24hr
in
rain mn
in
humidity
%
barometer
mb
20260510160003 62 105 0.0 1.0 0.00 0.20 0.00 76 1010.9
20260510155403 62 105 0.0 1.0 0.00 0.20 0.00 76 1010.8
20260510154503 62 0 0.0 0.0 0.00 0.21 0.00 78 1010.7
20260510153624 61 0 0.0 0.0 0.00 0.23 0.00 80 1010.7
20260510152702 62 0 0.0 0.0 0.00 0.24 0.00 77 1010.8
20260510151825 62 0 0.0 0.0 0.00 0.24 0.00 82 1010.8
20260510150925 60 0 0.0 0.0 0.00 0.25 0.00 81 1010.6
20260510150003 60 0 0.0 0.0 0.00 0.25 0.00 85 1010.7
20260510145403 59 217 0.0 1.0 0.00 0.26 0.00 85 1010.7
20260510144503 58 0 0.0 0.0 0.00 0.26 0.00 87 1010.7
20260510143603 58 0 0.0 1.0 0.00 0.26 0.00 91 1010.7
20260510142703 57 15 0.0 1.0 0.00 0.27 0.00 95 1010.9
20260510141803 56 0 0.0 0.0 0.00 0.27 0.00 96 1010.7
20260510140903 55 0 0.0 0.0 0.00 0.27 0.00 97 1010.8
20260510140003 54 287 0.0 1.0 0.00 0.27 0.00 97 1010.7
20260510135403 54 0 0.0 0.0 0.00 0.27 0.00 97 1010.8
20260510134503 54 0 0.0 0.0 0.00 0.27 0.00 97 1010.9
20260510133603 54 18 0.0 4.0 0.00 0.27 0.00 97 1011.0
20260510132703 53 0 0.0 0.0 0.00 0.27 0.00 97 1011.0
20260510131803 53 0 0.0 0.0 0.00 0.27 0.00 97 1011.0
20260510130903 53 0 0.0 0.0 0.00 0.27 0.00 97 1010.9
20260510130003 53 0 0.0 0.0 0.00 0.27 0.00 97 1010.7
20260510125403 53 0 0.0 0.0 0.00 0.27 0.00 97 1010.6
20260510124524 53 0 0.0 0.0 0.00 0.27 0.00 97 1010.8
20260510123603 52 0 0.0 0.0 0.00 0.27 0.00 97 1010.9
20260510122704 52 0 0.0 0.0 0.00 0.27 0.00 97 1010.9
20260510121803 52 0 0.0 0.0 0.00 0.27 0.00 97 1010.9
20260510120903 51 0 0.0 0.0 0.00 0.27 0.00 97 1011.0
20260510120003 51 0 0.0 0.0 0.00 0.27 0.00 97 1011.0
20260510115403 51 0 0.0 0.0 0.00 0.27 0.00 97 1011.1
20260510114504 51 0 0.0 0.0 0.00 0.27 0.00 97 1010.8
20260510113604 51 0 0.0 0.0 0.00 0.27 0.00 97 1010.7
20260510112703 50 0 0.0 0.0 0.00 0.27 0.00 97 1010.5
20260510111803 50 0 0.0 0.0 0.00 0.27 0.00 97 1010.7
20260510110903 50 0 0.0 0.0 0.00 0.27 0.00 97 1010.8
20260510110003 50 0 0.0 0.0 0.00 0.27 0.00 97 1010.5
20260510105404 49 0 0.0 0.0 0.00 0.27 0.00 97 1010.5
20260510104503 49 0 0.0 0.0 0.00 0.27 0.00 97 1010.3
20260510103603 48 0 0.0 0.0 0.00 0.27 0.00 97 1010.1
20260510102724 48 0 0.0 0.0 0.00 0.27 0.00 97 1010.1
20260510101824 48 0 0.0 0.0 0.00 0.27 0.00 97 1010.0
20260510100903 48 0 0.0 0.0 0.00 0.27 0.00 97 1009.6
20260510100003 48 0 0.0 0.0 0.00 0.27 0.00 97 1009.2
20260510095403 48 0 0.0 0.0 0.00 0.27 0.00 97 1009.3
20260510094504 48 0 0.0 0.0 0.00 0.27 0.00 97 1009.0
20260510093603 48 0 0.0 0.0 0.00 0.27 0.00 97 1009.1
20260510092703 48 0 0.0 0.0 0.00 0.27 0.00 97 1009.6
20260510091824 48 0 0.0 0.0 0.00 0.27 0.00 97 1008.9
20260510090903 48 0 0.0 0.0 0.00 0.27 0.00 97 1009.2
20260510090004 48 0 0.0 0.0 0.00 0.27 0.00 97 1008.9
20260510085404 48 0 0.0 0.0 0.00 0.27 0.00 97 1009.1
20260510084524 48 0 0.0 0.0 0.00 0.27 0.00 97 1009.4
20260510083603 48 0 0.0 0.0 0.00 0.27 0.00 97 1009.5
20260510082703 48 0 0.0 0.0 0.00 0.27 0.00 97 1009.7
20260510081803 48 0 0.0 0.0 0.00 0.27 0.00 97 1009.5
20260510080903 48 0 0.0 0.0 0.00 0.27 0.00 97 1009.4
20260510080003 48 0 0.0 0.0 0.00 0.27 0.00 97 1009.7
20260510075403 48 0 0.0 0.0 0.00 0.27 0.00 97 1009.6
20260510074503 48 0 0.0 0.0 0.00 0.27 0.00 96 1009.7
20260510073603 48 0 0.0 0.0 0.00 0.27 0.00 96 1009.6
20260510072704 48 0 0.0 0.0 0.00 0.27 0.00 96 1009.7
20260510071803 48 0 0.0 0.0 0.00 0.27 0.00 96 1009.6
20260510070903 48 0 0.0 0.0 0.00 0.27 0.00 96 1009.4
20260510070003 48 0 0.0 0.0 0.00 0.27 0.00 96 1009.4
20260510065403 47 0 0.0 0.0 0.00 0.27 0.00 96 1009.6
20260510064503 47 0 0.0 0.0 0.00 0.27 0.00 96 1009.8
20260510063603 47 0 0.0 0.0 0.00 0.27 0.00 96 1009.7
20260510062703 47 0 0.0 0.0 0.00 0.27 0.00 96 1009.8
20260510061803 47 0 0.0 0.0 0.00 0.27 0.00 96 1009.8
20260510060903 47 0 0.0 0.0 0.00 0.27 0.00 96 1009.6
20260510060003 47 0 0.0 0.0 0.00 0.27 0.00 96 1009.4
20260510055403 47 0 0.0 0.0 0.00 0.27 0.00 96 1009.5
20260510054503 47 0 0.0 0.0 0.00 0.27 0.00 96 1009.8
20260510053603 47 0 0.0 0.0 0.00 0.27 0.00 96 1009.9
20260510052703 47 0 0.0 0.0 0.00 0.27 0.00 96 1009.9
20260510051803 47 0 0.0 0.0 0.00 0.27 0.00 96 1009.9
20260510050904 47 0 0.0 0.0 0.00 0.27 0.00 96 1009.8
20260510050024 47 0 0.0 0.0 0.00 0.27 0.00 96 1010.0
20260510045403 47 0 0.0 0.0 0.00 0.27 0.00 96 1010.1
20260510044524 47 0 0.0 0.0 0.00 0.27 0.00 96 1010.3
20260510043603 47 0 0.0 0.0 0.00 0.27 0.00 96 1010.2
20260510042703 47 0 0.0 0.0 0.00 0.27 0.00 96 1010.1
20260510041803 47 0 0.0 0.0 0.00 0.27 0.00 96 1010.1
20260510040903 47 0 0.0 0.0 0.00 0.27 0.00 96 1010.1
20260510040003 47 0 0.0 0.0 0.00 0.27 0.00 96 1010.2
20260510035403 47 0 0.0 0.0 0.00 0.27 0.27 96 1010.2
20260510034503 47 0 0.0 0.0 0.00 0.27 0.27 96 1010.1
20260510033603 47 0 0.0 0.0 0.00 0.27 0.27 96 1010.1
20260510032724 47 0 0.0 0.0 0.00 0.27 0.27 96 1010.1
20260510031803 47 0 0.0 0.0 0.00 0.27 0.27 96 1010.1
20260510030904 47 0 0.0 0.0 0.00 0.27 0.27 96 1010.2
20260510030024 47 0 0.0 0.0 0.00 0.27 0.27 96 1010.3
20260510025403 47 0 0.0 0.0 0.00 0.27 0.27 96 1010.3
20260510024504 47 0 0.0 0.0 0.00 0.27 0.27 96 1010.3
20260510023603 47 0 0.0 0.0 0.00 0.27 0.27 96 1010.4
20260510022724 47 0 0.0 0.0 0.00 0.27 0.27 96 1010.5
20260510021803 47 0 0.0 0.0 0.00 0.27 0.27 95 1010.4
20260510020903 47 0 0.0 0.0 0.00 0.27 0.27 96 1010.5
20260510020003 47 0 0.0 0.0 0.00 0.27 0.27 96 1010.5
20260510015403 47 0 0.0 0.0 0.00 0.27 0.27 96 1010.5
20260510014503 47 0 0.0 0.0 0.00 0.27 0.27 95 1010.7
20260510013603 47 0 0.0 0.0 0.00 0.27 0.27 95 1010.7
20260510012724 47 0 0.0 0.0 0.00 0.27 0.27 95 1010.5
20260510011803 47 0 0.0 0.0 0.00 0.27 0.27 95 1010.5
20260510010903 47 0 0.0 0.0 0.00 0.27 0.27 95 1010.5
20260510010003 47 0 0.0 0.0 0.00 0.27 0.27 95 1010.5
20260510005403 47 0 0.0 0.0 0.00 0.27 0.27 95 1010.5
20260510004503 47 0 0.0 0.0 0.00 0.27 0.27 95 1010.4
20260510003603 47 0 0.0 0.0 0.00 0.27 0.27 95 1010.4
20260510002725 47 0 0.0 0.0 0.00 0.27 0.27 95 1010.3
20260510001803 47 0 0.0 0.0 0.00 0.27 0.27 95 1010.1
20260510000903 47 0 0.0 0.0 0.00 0.27 0.27 95 1010.2
20260510000003 47 0 0.0 0.0 0.00 0.27 0.27 95 1009.9
20260509235424 48 0 0.0 0.0 0.00 0.27 0.27 95 1009.9
20260509234503 48 0 0.0 0.0 0.00 0.27 0.27 95 1009.9
20260509233603 48 0 0.0 0.0 0.00 0.27 0.27 95 1009.7
20260509232703 48 0 0.0 0.0 0.00 0.27 0.27 95 1009.7
20260509231804 48 0 0.0 0.0 0.00 0.27 0.27 95 1009.7
20260509230903 48 0 0.0 0.0 0.00 0.27 0.27 95 1009.8
20260509230004 48 0 0.0 0.0 0.00 0.27 0.27 95 1009.8
20260509225403 48 0 0.0 0.0 0.00 0.27 0.27 95 1009.8
20260509224503 48 0 0.0 0.0 0.00 0.27 0.27 95 1009.9
20260509223603 48 0 0.0 0.0 0.00 0.27 0.27 95 1010.0
20260509222724 48 0 0.0 0.0 0.00 0.27 0.27 95 1009.9
20260509221824 48 0 0.0 0.0 0.00 0.27 0.27 95 1009.9
20260509220903 48 0 0.0 0.0 0.00 0.27 0.27 95 1010.0
20260509220003 48 0 0.0 0.0 0.00 0.27 0.27 95 1010.0
20260509215403 48 0 0.0 0.0 0.00 0.27 0.27 95 1010.1
20260509214503 48 0 0.0 0.0 0.01 0.27 0.27 95 1010.1
20260509213603 48 0 0.0 0.0 0.01 0.27 0.27 95 1010.3
20260509212703 48 0 0.0 0.0 0.01 0.27 0.27 94 1010.3
20260509211803 48 0 0.0 0.0 0.02 0.27 0.27 94 1010.3
20260509210924 48 0 0.0 0.0 0.02 0.27 0.27 94 1010.4
20260509210024 48 0 0.0 0.0 0.02 0.27 0.27 94 1010.4
20260509205403 49 0 0.0 0.0 0.03 0.27 0.27 94 1010.4
20260509204503 48 0 0.0 0.0 0.03 0.26 0.26 94 1010.4
20260509203603 49 0 0.0 0.0 0.03 0.26 0.26 94 1010.5
20260509202703 48 0 0.0 0.0 0.03 0.26 0.26 94 1010.4
20260509201824 48 0 0.0 0.0 0.03 0.25 0.25 94 1010.5
20260509200903 48 0 0.0 0.0 0.04 0.25 0.25 94 1010.5
20260509200004 48 0 0.0 0.0 0.04 0.25 0.25 94 1010.6
20260509195403 48 0 0.0 0.0 0.04 0.24 0.24 94 1010.6
20260509194503 48 0 0.0 0.0 0.04 0.23 0.23 94 1010.8
20260509193603 48 0 0.0 0.0 0.04 0.23 0.23 94 1010.9
20260509192703 48 0 0.0 0.0 0.06 0.23 0.23 94 1011.0
20260509191804 48 0 0.0 0.0 0.05 0.22 0.22 94 1011.0
20260509190903 48 0 0.0 0.0 0.05 0.21 0.21 94 1011.1
20260509190003 48 0 0.0 0.0 0.06 0.21 0.21 94 1011.2
20260509185403 48 0 0.0 0.0 0.05 0.20 0.20 94 1011.2
20260509184503 47 0 0.0 0.0 0.05 0.19 0.19 94 1011.3
20260509183603 47 0 0.0 0.0 0.06 0.19 0.19 94 1011.3
20260509182703 47 0 0.0 0.0 0.04 0.17 0.18 93 1011.4
20260509181803 47 0 0.0 0.0 0.04 0.17 0.17 93 1011.6
20260509180903 47 0 0.0 0.0 0.04 0.16 0.16 93 1011.6
20260509180004 47 0 0.0 0.0 0.04 0.15 0.15 93 1011.6
20260509175424 47 0 0.0 0.0 0.04 0.15 0.15 93 1011.7
20260509174503 47 0 0.0 0.0 0.03 0.14 0.14 93 1011.8
20260509173603 47 0 0.0 0.0 0.03 0.13 0.13 93 1011.8
20260509172703 47 0 0.0 0.0 0.04 0.13 0.13 93 1012.0
20260509171803 47 0 0.0 0.0 0.04 0.13 0.13 93 1012.0
20260509170903 47 0 0.0 0.0 0.04 0.12 0.12 93 1012.1
20260509170003 46 0 0.0 0.0 0.04 0.11 0.11 92 1012.3
20260509165403 46 0 0.0 0.0 0.04 0.11 0.11 92 1012.4
20260509164524 46 0 0.0 0.0 0.05 0.11 0.11 92 1012.4
20260509163603 46 0 0.0 0.0 0.06 0.10 0.10 92 1012.6
20260509162724 46 0 0.0 0.0 0.06 0.09 0.09 92 1012.6
20260509161824 46 0 0.0 0.0 0.06 0.09 0.09 91 1012.7
20260509160903 46 0 0.0 0.0 0.06 0.08 0.08 91 1012.8